Location: Gerlach
(40.6516°N, 119.3568°W)
Time: 18:37:53
(UTC-08:00)

TIGRISAT - Visible Passes

Search period start: 26 February 2024 00:00
Search period end: 07 March 2024 00:00
Orbit: 597 x 674 km, 97.7° (Epoch: 26 February)

Date Brightness Start Highest point End Pass type
(mag) Time Alt. Az. Time Alt. Az. Time Alt. Az.
26 Feb ? 18:27:56 10° NW 18:29:37 12° WNW 18:31:18 10° W visible
01 Mar ? 18:19:12 10° NNW 18:21:35 14° WNW 18:23:56 10° W visible
02 Mar ? 03:45:30 12° N 03:45:30 12° N 03:45:53 10° N visible
03 Mar ? 04:07:20 15° N 04:07:20 15° N 04:08:05 10° N visible
04 Mar ? 02:51:43 11° NE 02:51:43 11° NE 02:52:08 10° NNE visible
04 Mar ? 04:29:10 16° NNW 04:29:10 16° NNW 04:30:04 10° NNW visible
05 Mar ? 03:13:30 17° NNE 03:13:30 17° NNE 03:15:04 10° NNE visible
05 Mar ? 04:50:58 15° NW 04:50:58 15° NW 04:51:48 10° NNW visible
06 Mar ? 03:35:17 26° NNE 03:35:17 26° NNE 03:37:33 10° N visible
06 Mar ? 05:12:44 12° NW 05:12:44 12° NW 05:13:11 10° NW visible
